Pittsburgh, PA

2:00 PM EDT on March 25, 2017 (GMT -0400)
Pittsburgh International

Weather History for KPIT - March, 2012

Change the Weather History Date:

Friday, March 9, 2012

  Actual Average Record
Temperature  
Mean Temperature 35 °F 37 °F  
Max Temperature 42 °F 46 °F 77 °F (1879)
Min Temperature 28 °F 28 °F -1 °F (1960)
Degree Days  
Heating Degree Days 30 28  
Month to date heating degree days 220 264  
Since 1 July heating degree days 3898 4521  
Cooling Degree Days 0 0  
Month to date cooling degree days 0 0  
Year to date cooling degree days 0 0  
Moisture  
Dew Point 22 °F    
Average Humidity 59    
Maximum Humidity 78    
Minimum Humidity 40    
Precipitation  
Precipitation T in 0.09 in 1.82 in (1964)
Month to date precipitation 1.20 0.79  
Year to date precipitation 7.29 5.88  
Snow  
Snow T in 0.30 in 3.00 in (1908)
Month to date snowfall 6.0 2.9  
Since 1 July snowfall 36.9 35.7  
Snow Depth 0.00 in    
Sea Level Pressure  
Sea Level Pressure 30.29 in    
Wind  
Wind Speed 14 mph (WNW)    
Max Wind Speed 32 mph    
Max Gust Speed 38 mph    
Visibility 10 miles    
Events Snow    
T = Trace of Precipitation, MM = Missing Value Source: NWS Daily Summary

Daily Weather History Graph

Daily Weather History Graph

Search for Another Location

Airport or City:

Trip Planner

Search our weather history database for the weather conditions in past years. The results will help you decide how hot, cold, wet, or windy it might be!

Date:

Astronomy

Mar. 09, 2012 Rise Set
Actual Time 6:41 AM EST 6:21 PM EST
Civil Twilight 6:14 AM EST 6:49 PM EST
Nautical Twilight 5:42 AM EST 7:20 PM EST
Astronomical Twilight 5:10 AM EST 7:52 PM EST
Moon 8:20 PM EST (3/9) 6:58 AM EST (3/9)
Length of Visible Light 12h 34m
Length of Day
11h 40m
Full, 98% of the Moon is Illuminated
Mar 9
Full
Mar 14
Last Quarter
Mar 22
New
Mar 30
First Quarter
Apr 6
Full

Hourly Weather History & Observations

Time (EST) Temp. Windchill Dew Point Humidity Pressure Visibility Wind Dir Wind Speed Gust Speed Precip Events Conditions
12:25 AM 37.4 °F 30.8 °F 30.2 °F 75% 30.15 in 10.0 mi WNW 9.2 mph - N/A   Mostly Cloudy
12:51 AM 36.0 °F 27.1 °F 28.9 °F 76% 30.20 in 10.0 mi West 13.8 mph - N/A   Mostly Cloudy
1:10 AM 35.6 °F 28.0 °F 28.4 °F 75% 30.16 in 10.0 mi West 10.4 mph - N/A   Mostly Cloudy
1:51 AM 35.1 °F 29.3 °F 27.0 °F 72% 30.21 in 10.0 mi West 6.9 mph - N/A   Mostly Cloudy
2:51 AM 33.1 °F 24.9 °F 26.1 °F 75% 30.22 in 10.0 mi West 10.4 mph - N/A   Partly Cloudy
3:51 AM 30.9 °F 24.3 °F 24.1 °F 76% 30.21 in 10.0 mi West 6.9 mph - N/A   Clear
4:51 AM 30.9 °F 27.5 °F 24.1 °F 76% 30.22 in 10.0 mi WSW 3.5 mph - N/A   Scattered Clouds
5:51 AM 32.0 °F 26.4 °F 24.1 °F 73% 30.22 in 10.0 mi South 5.8 mph - N/A   Mostly Cloudy
6:51 AM 32.0 °F 24.8 °F 24.1 °F 73% 30.22 in 10.0 mi SW 8.1 mph - N/A   Scattered Clouds
7:51 AM 33.1 °F 26.9 °F 25.0 °F 72% 30.23 in 10.0 mi SW 6.9 mph - N/A   Scattered Clouds
8:51 AM 36.0 °F 29.6 °F 25.0 °F 64% 30.24 in 10.0 mi WSW 8.1 mph - N/A   Scattered Clouds
9:51 AM 37.9 °F 29.2 °F 26.1 °F 62% 30.24 in 10.0 mi West 15.0 mph 23.0 mph N/A   Mostly Cloudy
10:51 AM 37.9 °F 28.5 °F 24.1 °F 57% 30.25 in 10.0 mi WNW 17.3 mph 26.5 mph N/A   Overcast
11:51 AM 37.0 °F 25.6 °F 24.1 °F 59% 30.27 in 9.0 mi WNW 24.2 mph 31.1 mph 0.00 in Snow Light Snow
12:51 PM 37.9 °F 27.3 °F 21.9 °F 53% 30.29 in 10.0 mi West 21.9 mph 33.4 mph 0.00 in   Mostly Cloudy
1:51 PM 41.0 °F 31.4 °F 21.9 °F 47% 30.30 in 10.0 mi WNW 21.9 mph 29.9 mph N/A   Mostly Cloudy
2:51 PM 39.9 °F 29.2 °F 19.9 °F 45% 30.31 in 10.0 mi NW 25.3 mph 31.1 mph N/A   Scattered Clouds
3:51 PM 39.0 °F 29.3 °F 18.0 °F 43% 30.34 in 10.0 mi WNW 19.6 mph 32.2 mph N/A   Scattered Clouds
4:51 PM 39.0 °F 29.0 °F 18.0 °F 43% 30.35 in 10.0 mi WNW 20.7 mph 31.1 mph N/A   Partly Cloudy
5:51 PM 37.0 °F 27.0 °F 17.1 °F 44% 30.37 in 10.0 mi NW 18.4 mph 29.9 mph N/A   Partly Cloudy
6:51 PM 35.1 °F 24.5 °F 18.0 °F 50% 30.39 in 10.0 mi NW 18.4 mph 25.3 mph N/A   Scattered Clouds
7:51 PM 33.1 °F 23.4 °F 16.0 °F 50% 30.42 in 10.0 mi NW 13.8 mph - N/A   Scattered Clouds
8:51 PM 32.0 °F 21.6 °F 15.8 °F 51% 30.38 in 10.0 mi NW 15.0 mph 20.7 mph N/A   Partly Cloudy
9:51 PM 30.9 °F 21.2 °F 15.1 °F 52% 30.45 in 10.0 mi NW 12.7 mph 20.7 mph N/A   Clear
10:51 PM 30.0 °F 20.0 °F 16.0 °F 56% 30.47 in 10.0 mi NW 12.7 mph - N/A   Partly Cloudy
11:51 PM 28.9 °F 21.1 °F 16.0 °F 58% 30.48 in 10.0 mi NW 8.1 mph - N/A   Scattered Clouds